Year,Month,Day,Hour,Minute,Value (Times are PST for windgust in km/hr)
2015,08,29,00,00,8.10
2015,08,29,00,01,6.40
2015,08,29,00,02,8.10
2015,08,29,00,03,14.50
2015,08,29,00,04,19.30
2015,08,29,00,05,11.30
2015,08,29,00,06,9.60
2015,08,29,00,07,14.50
2015,08,29,00,08,6.40
2015,08,29,00,09,8.10
2015,08,29,00,10,14.50
2015,08,29,00,11,8.10
2015,08,29,00,12,9.60
2015,08,29,00,13,6.40
2015,08,29,00,14,8.10
2015,08,29,00,15,9.60
2015,08,29,00,16,8.10
2015,08,29,00,17,8.10
2015,08,29,00,18,17.70
2015,08,29,00,19,9.60
2015,08,29,00,20,12.90
2015,08,29,00,21,11.30
2015,08,29,00,22,9.60
2015,08,29,00,23,9.60
2015,08,29,00,24,14.50
2015,08,29,00,25,11.30
2015,08,29,00,26,9.60
2015,08,29,00,27,9.60
2015,08,29,00,28,12.90
2015,08,29,00,29,8.10
2015,08,29,00,30,8.10
2015,08,29,00,31,8.10
2015,08,29,00,32,8.10
2015,08,29,00,33,8.10
2015,08,29,00,34,12.90
2015,08,29,00,35,16.10
2015,08,29,00,36,8.10
2015,08,29,00,37,8.10
2015,08,29,00,38,3.20
2015,08,29,00,39,11.30
2015,08,29,00,40,14.50
2015,08,29,00,41,8.10
2015,08,29,00,42,17.70
2015,08,29,00,43,17.70
2015,08,29,00,44,11.30
2015,08,29,00,45,9.60
2015,08,29,00,46,11.30
2015,08,29,00,47,9.60
2015,08,29,00,48,16.10
2015,08,29,00,49,9.60
2015,08,29,00,50,9.60
2015,08,29,00,51,9.60
2015,08,29,00,52,16.10
2015,08,29,00,53,11.30
2015,08,29,00,54,11.30
2015,08,29,00,55,16.10
2015,08,29,00,56,17.70
2015,08,29,00,57,14.50
2015,08,29,00,58,16.10
2015,08,29,00,59,12.90
2015,08,29,01,00,16.10
2015,08,29,01,01,12.90
2015,08,29,01,02,16.10
2015,08,29,01,03,20.90
2015,08,29,01,04,17.70
2015,08,29,01,05,11.30
2015,08,29,01,06,14.50
2015,08,29,01,07,11.30
2015,08,29,01,08,9.60
2015,08,29,01,09,11.30
2015,08,29,01,10,16.10
2015,08,29,01,11,11.30
2015,08,29,01,12,22.50
2015,08,29,01,13,19.30
2015,08,29,01,14,19.30
2015,08,29,01,15,14.50
2015,08,29,01,16,19.30
2015,08,29,01,17,19.30
2015,08,29,01,18,24.20
2015,08,29,01,19,19.30
2015,08,29,01,20,16.10
2015,08,29,01,21,16.10
2015,08,29,01,22,11.30
2015,08,29,01,23,20.90
2015,08,29,01,24,20.90
2015,08,29,01,25,17.70
2015,08,29,01,26,20.90
2015,08,29,01,27,17.70
2015,08,29,01,28,19.30
2015,08,29,01,29,14.50
2015,08,29,01,30,16.10
2015,08,29,01,31,19.30
2015,08,29,01,32,22.50
2015,08,29,01,33,24.20
2015,08,29,01,34,19.30
2015,08,29,01,35,17.70
2015,08,29,01,36,19.30
2015,08,29,01,37,19.30
2015,08,29,01,38,20.90
2015,08,29,01,39,20.90
2015,08,29,01,40,22.50
2015,08,29,01,41,17.70
2015,08,29,01,42,25.70
2015,08,29,01,43,17.70
2015,08,29,01,44,17.70
2015,08,29,01,45,14.50
2015,08,29,01,46,14.50
2015,08,29,01,47,14.50
2015,08,29,01,48,14.50
2015,08,29,01,49,11.30
2015,08,29,01,50,16.10
2015,08,29,01,51,9.60
2015,08,29,01,52,17.70
2015,08,29,01,53,14.50
2015,08,29,01,54,20.90
2015,08,29,01,55,19.30
2015,08,29,01,56,17.70
2015,08,29,01,57,17.70
2015,08,29,01,58,14.50
2015,08,29,01,59,9.60
2015,08,29,02,00,20.90
2015,08,29,02,01,20.90
2015,08,29,02,02,17.70
2015,08,29,02,03,16.10
2015,08,29,02,04,11.30
2015,08,29,02,05,16.10
2015,08,29,02,06,19.30
2015,08,29,02,07,17.70
2015,08,29,02,08,22.50
2015,08,29,02,09,16.10
2015,08,29,02,10,20.90
2015,08,29,02,11,19.30
2015,08,29,02,12,9.60
2015,08,29,02,13,22.50
2015,08,29,02,14,19.30
2015,08,29,02,15,16.10
2015,08,29,02,16,17.70
2015,08,29,02,17,20.90
2015,08,29,02,18,20.90
2015,08,29,02,19,19.30
2015,08,29,02,20,12.90
2015,08,29,02,21,12.90
2015,08,29,02,22,16.10
2015,08,29,02,23,19.30
2015,08,29,02,24,22.50
2015,08,29,02,25,12.90
2015,08,29,02,26,22.50
2015,08,29,02,27,17.70
2015,08,29,02,28,14.50
2015,08,29,02,29,14.50
2015,08,29,02,30,16.10
2015,08,29,02,31,20.90
2015,08,29,02,32,16.10
2015,08,29,02,33,11.30
2015,08,29,02,34,17.70
2015,08,29,02,35,11.30
2015,08,29,02,36,19.30
2015,08,29,02,37,22.50
2015,08,29,02,38,17.70
2015,08,29,02,39,12.90
2015,08,29,02,40,17.70
2015,08,29,02,41,19.30
2015,08,29,02,42,20.90
2015,08,29,02,43,20.90
2015,08,29,02,44,19.30
2015,08,29,02,45,17.70
2015,08,29,02,46,20.90
2015,08,29,02,47,32.20
2015,08,29,02,48,24.20
2015,08,29,02,49,19.30
2015,08,29,02,50,20.90
2015,08,29,02,51,22.50
2015,08,29,02,52,14.50
2015,08,29,02,53,24.20
2015,08,29,02,54,19.30
2015,08,29,02,55,22.50
2015,08,29,02,56,24.20
2015,08,29,02,57,19.30
2015,08,29,02,58,29.00
2015,08,29,02,59,25.70
2015,08,29,03,00,16.10
2015,08,29,03,01,19.30
2015,08,29,03,02,17.70
2015,08,29,03,03,25.70
2015,08,29,03,04,17.70
2015,08,29,03,05,20.90
2015,08,29,03,06,20.90
2015,08,29,03,07,20.90
2015,08,29,03,08,20.90
2015,08,29,03,09,25.70
2015,08,29,03,10,19.30
2015,08,29,03,11,19.30
2015,08,29,03,12,17.70
2015,08,29,03,13,17.70
2015,08,29,03,14,11.30
2015,08,29,03,15,19.30
2015,08,29,03,16,17.70
2015,08,29,03,17,19.30
2015,08,29,03,18,17.70
2015,08,29,03,19,17.70
2015,08,29,03,20,12.90
2015,08,29,03,21,24.20
2015,08,29,03,22,22.50
2015,08,29,03,23,20.90
2015,08,29,03,24,16.10
2015,08,29,03,25,20.90
2015,08,29,03,26,19.30
2015,08,29,03,27,22.50
2015,08,29,03,28,30.60
2015,08,29,03,29,20.90
2015,08,29,03,30,22.50
2015,08,29,03,31,20.90
2015,08,29,03,32,19.30
2015,08,29,03,33,22.50
2015,08,29,03,34,20.90
2015,08,29,03,35,14.50
2015,08,29,03,36,14.50
2015,08,29,03,37,20.90
2015,08,29,03,38,19.30
2015,08,29,03,39,22.50
2015,08,29,03,40,25.70
2015,08,29,03,41,17.70
2015,08,29,03,42,20.90
2015,08,29,03,43,19.30
2015,08,29,03,44,19.30
2015,08,29,03,45,14.50
2015,08,29,03,46,22.50
2015,08,29,03,47,19.30
2015,08,29,03,48,29.00
2015,08,29,03,49,19.30
2015,08,29,03,50,25.70
2015,08,29,03,51,17.70
2015,08,29,03,52,25.70
2015,08,29,03,53,17.70
2015,08,29,03,54,16.10
2015,08,29,03,55,19.30
2015,08,29,03,56,14.50
2015,08,29,03,57,24.20
2015,08,29,03,58,29.00
2015,08,29,03,59,22.50
2015,08,29,04,00,19.30
2015,08,29,04,01,19.30
2015,08,29,04,02,17.70
2015,08,29,04,03,11.30
2015,08,29,04,04,24.20
2015,08,29,04,05,14.50
2015,08,29,04,06,11.30
2015,08,29,04,07,25.70
2015,08,29,04,08,25.70
2015,08,29,04,09,24.20
2015,08,29,04,10,24.20
2015,08,29,04,11,16.10
2015,08,29,04,12,22.50
2015,08,29,04,13,25.70
2015,08,29,04,14,20.90
2015,08,29,04,15,19.30
2015,08,29,04,16,16.10
2015,08,29,04,17,20.90
2015,08,29,04,18,19.30
2015,08,29,04,19,22.50
2015,08,29,04,20,22.50
2015,08,29,04,21,29.00
2015,08,29,04,22,19.30
2015,08,29,04,23,17.70
2015,08,29,04,24,22.50
2015,08,29,04,25,20.90
2015,08,29,04,26,16.10
2015,08,29,04,27,11.30
2015,08,29,04,28,17.70
2015,08,29,04,29,11.30
2015,08,29,04,30,19.30
2015,08,29,04,31,22.50
2015,08,29,04,32,30.60
2015,08,29,04,33,25.70
2015,08,29,04,34,16.10
2015,08,29,04,35,24.20
2015,08,29,04,36,20.90
2015,08,29,04,37,22.50
2015,08,29,04,38,19.30
2015,08,29,04,39,19.30
2015,08,29,04,40,19.30
2015,08,29,04,41,14.50
2015,08,29,04,42,20.90
2015,08,29,04,43,19.30
2015,08,29,04,44,17.70
2015,08,29,04,45,19.30
2015,08,29,04,46,12.90
2015,08,29,04,47,20.90
2015,08,29,04,48,16.10
2015,08,29,04,49,16.10
2015,08,29,04,50,14.50
2015,08,29,04,51,16.10
2015,08,29,04,52,11.30
2015,08,29,04,53,11.30
2015,08,29,04,54,12.90
2015,08,29,04,55,8.10
2015,08,29,04,56,22.50
2015,08,29,04,57,22.50
2015,08,29,04,58,17.70
2015,08,29,04,59,16.10
2015,08,29,05,00,16.10
2015,08,29,05,01,16.10
2015,08,29,05,02,17.70
2015,08,29,05,03,11.30
2015,08,29,05,04,11.30
2015,08,29,05,05,17.70
2015,08,29,05,06,9.60
2015,08,29,05,07,8.10
2015,08,29,05,08,9.60
2015,08,29,05,09,9.60
2015,08,29,05,10,9.60
2015,08,29,05,11,16.10
2015,08,29,05,12,12.90
2015,08,29,05,13,9.60
2015,08,29,05,14,14.50
2015,08,29,05,15,11.30
2015,08,29,05,16,4.80
2015,08,29,05,17,9.60
2015,08,29,05,18,9.60
2015,08,29,05,19,9.60
2015,08,29,05,20,9.60
2015,08,29,05,21,11.30
2015,08,29,05,22,16.10
2015,08,29,05,23,14.50
2015,08,29,05,24,16.10
2015,08,29,05,25,16.10
2015,08,29,05,26,14.50
2015,08,29,05,27,14.50
2015,08,29,05,28,14.50
2015,08,29,05,29,11.30
2015,08,29,05,30,12.90
2015,08,29,05,31,9.60
2015,08,29,05,32,16.10
2015,08,29,05,33,14.50
2015,08,29,05,34,20.90
2015,08,29,05,35,19.30
2015,08,29,05,36,17.70
2015,08,29,05,37,19.30
2015,08,29,05,38,12.90
2015,08,29,05,39,6.40
2015,08,29,05,40,6.40
2015,08,29,05,41,11.30
2015,08,29,05,42,9.60
2015,08,29,05,43,8.10
2015,08,29,05,44,11.30
2015,08,29,05,45,8.10
2015,08,29,05,46,11.30
2015,08,29,05,47,9.60
2015,08,29,05,48,8.10
2015,08,29,05,49,9.60
2015,08,29,05,50,14.50
2015,08,29,05,51,16.10
2015,08,29,05,52,16.10
2015,08,29,05,53,14.50
2015,08,29,05,54,16.10
2015,08,29,05,55,19.30
2015,08,29,05,56,11.30
2015,08,29,05,57,14.50
2015,08,29,05,58,12.90
2015,08,29,05,59,11.30
2015,08,29,06,00,12.90
2015,08,29,06,01,4.80
2015,08,29,06,02,11.30
2015,08,29,06,03,8.10
2015,08,29,06,04,8.10
2015,08,29,06,05,17.70
2015,08,29,06,06,9.60
2015,08,29,06,07,11.30
2015,08,29,06,08,17.70
2015,08,29,06,09,19.30
2015,08,29,06,10,24.20
2015,08,29,06,11,11.30
2015,08,29,06,12,14.50
2015,08,29,06,13,24.20
2015,08,29,06,14,22.50
2015,08,29,06,15,17.70
2015,08,29,06,16,17.70
2015,08,29,06,17,16.10
2015,08,29,06,18,29.00
2015,08,29,06,19,17.70
2015,08,29,06,20,27.40
2015,08,29,06,21,27.40
2015,08,29,06,22,20.90
2015,08,29,06,23,27.40
2015,08,29,06,24,33.80
2015,08,29,06,25,20.90
2015,08,29,06,26,20.90
2015,08,29,06,27,25.70
2015,08,29,06,28,40.20
2015,08,29,06,29,29.00
2015,08,29,06,30,37.00
2015,08,29,06,31,22.50
2015,08,29,06,32,20.90
2015,08,29,06,33,19.30
2015,08,29,06,34,14.50
2015,08,29,06,35,22.50
2015,08,29,06,36,19.30
2015,08,29,06,37,19.30
2015,08,29,06,38,16.10
2015,08,29,06,39,11.30
2015,08,29,06,40,11.30
2015,08,29,06,41,14.50
2015,08,29,06,42,17.70
2015,08,29,06,43,19.30
2015,08,29,06,44,16.10
2015,08,29,06,45,16.10
2015,08,29,06,46,11.30
2015,08,29,06,47,11.30
2015,08,29,06,48,12.90
2015,08,29,06,49,14.50
2015,08,29,06,50,9.60
2015,08,29,06,51,9.60
2015,08,29,06,52,11.30
2015,08,29,06,53,16.10
2015,08,29,06,54,9.60
2015,08,29,06,55,9.60
2015,08,29,06,56,4.80
2015,08,29,06,57,9.60
2015,08,29,06,58,6.40
2015,08,29,06,59,6.40
2015,08,29,07,00,1.60
2015,08,29,07,01,4.80
2015,08,29,07,02,6.40
2015,08,29,07,03,8.10
2015,08,29,07,04,9.60
2015,08,29,07,05,9.60
2015,08,29,07,06,16.10
2015,08,29,07,07,11.30
2015,08,29,07,08,11.30
2015,08,29,07,09,11.30
2015,08,29,07,10,8.10
2015,08,29,07,11,8.10
2015,08,29,07,12,8.10
2015,08,29,07,13,3.20
2015,08,29,07,14,9.60
2015,08,29,07,15,8.10
2015,08,29,07,16,8.10
2015,08,29,07,17,8.10
2015,08,29,07,18,8.10
2015,08,29,07,19,12.90
2015,08,29,07,20,9.60
2015,08,29,07,21,9.60
2015,08,29,07,22,11.30
2015,08,29,07,23,9.60
2015,08,29,07,24,9.60
2015,08,29,07,25,9.60
2015,08,29,07,26,6.40
2015,08,29,07,27,8.10
2015,08,29,07,28,14.50
2015,08,29,07,29,16.10
2015,08,29,07,30,14.50
2015,08,29,07,31,19.30
2015,08,29,07,32,20.90
2015,08,29,07,33,20.90
2015,08,29,07,34,17.70
2015,08,29,07,35,14.50
2015,08,29,07,36,11.30
2015,08,29,07,37,11.30
2015,08,29,07,38,17.70
2015,08,29,07,39,16.10
2015,08,29,07,40,17.70
2015,08,29,07,41,19.30
2015,08,29,07,42,9.60
2015,08,29,07,43,14.50
2015,08,29,07,44,19.30
2015,08,29,07,45,24.20
2015,08,29,07,46,19.30
2015,08,29,07,47,17.70
2015,08,29,07,48,17.70
2015,08,29,07,49,19.30
2015,08,29,07,50,11.30
2015,08,29,07,51,24.20
2015,08,29,07,52,19.30
2015,08,29,07,53,17.70
2015,08,29,07,54,16.10
2015,08,29,07,55,14.50
2015,08,29,07,56,17.70
2015,08,29,07,57,17.70
2015,08,29,07,58,14.50
2015,08,29,07,59,16.10
2015,08,29,08,00,24.20
2015,08,29,08,01,20.90
2015,08,29,08,02,20.90
2015,08,29,08,03,19.30
2015,08,29,08,04,16.10
2015,08,29,08,05,17.70
2015,08,29,08,06,16.10
2015,08,29,08,07,11.30
2015,08,29,08,08,12.90
2015,08,29,08,09,19.30
2015,08,29,08,10,19.30
2015,08,29,08,11,14.50
2015,08,29,08,12,16.10
2015,08,29,08,13,19.30
2015,08,29,08,14,12.90
2015,08,29,08,15,14.50
2015,08,29,08,16,22.50
2015,08,29,08,17,11.30
2015,08,29,08,18,14.50
2015,08,29,08,19,12.90
2015,08,29,08,20,16.10
2015,08,29,08,21,9.60
2015,08,29,08,22,9.60
2015,08,29,08,23,9.60
2015,08,29,08,24,8.10
2015,08,29,08,25,14.50
2015,08,29,08,26,9.60
2015,08,29,08,27,8.10
2015,08,29,08,28,12.90
2015,08,29,08,29,12.90
2015,08,29,08,32,6.40
2015,08,29,08,35,3.20
2015,08,29,08,36,8.10
2015,08,29,08,37,4.80
2015,08,29,08,38,3.20
2015,08,29,08,40,3.20
2015,08,29,08,41,8.10
2015,08,29,08,42,6.40
2015,08,29,08,43,9.60
2015,08,29,08,44,11.30
2015,08,29,08,45,17.70
2015,08,29,08,46,14.50
2015,08,29,08,47,4.80
2015,08,29,08,48,8.10
2015,08,29,08,51,3.20
2015,08,29,08,52,6.40
2015,08,29,08,53,8.10
2015,08,29,08,54,8.10
2015,08,29,09,01,4.80
2015,08,29,09,02,8.10
2015,08,29,09,03,14.50
2015,08,29,09,04,14.50
2015,08,29,09,05,6.40
2015,08,29,09,06,6.40
2015,08,29,09,07,11.30
2015,08,29,09,08,11.30
2015,08,29,09,09,3.20
2015,08,29,09,10,1.60
2015,08,29,09,12,9.60
2015,08,29,09,13,9.60
2015,08,29,09,14,9.60
2015,08,29,09,15,8.10
2015,08,29,09,16,11.30
2015,08,29,09,17,8.10
2015,08,29,09,18,4.80
2015,08,29,09,19,14.50
2015,08,29,09,20,11.30
2015,08,29,09,21,9.60
2015,08,29,09,22,17.70
2015,08,29,09,23,9.60
2015,08,29,09,24,16.10
2015,08,29,09,25,14.50
2015,08,29,09,26,17.70
2015,08,29,09,27,16.10
2015,08,29,09,28,20.90
2015,08,29,09,29,16.10
2015,08,29,09,30,14.50
2015,08,29,09,31,14.50
2015,08,29,09,32,12.90
2015,08,29,09,33,9.60
2015,08,29,09,34,17.70
2015,08,29,09,35,16.10
2015,08,29,09,36,20.90
2015,08,29,09,37,16.10
2015,08,29,09,38,20.90
2015,08,29,09,39,16.10
2015,08,29,09,40,19.30
2015,08,29,09,41,16.10
2015,08,29,09,42,19.30
2015,08,29,09,43,17.70
2015,08,29,09,44,22.50
2015,08,29,09,45,19.30
2015,08,29,09,46,24.20
2015,08,29,09,47,20.90
2015,08,29,09,48,17.70
2015,08,29,09,49,17.70
2015,08,29,09,50,22.50
2015,08,29,09,51,22.50
2015,08,29,09,52,19.30
2015,08,29,09,53,16.10
2015,08,29,09,54,20.90
2015,08,29,09,55,24.20
2015,08,29,09,56,27.40
2015,08,29,09,57,29.00
2015,08,29,09,58,19.30
2015,08,29,09,59,19.30
2015,08,29,10,00,24.20
2015,08,29,10,01,22.50
2015,08,29,10,02,22.50
2015,08,29,10,03,24.20
2015,08,29,10,04,20.90
2015,08,29,10,05,14.50
2015,08,29,10,06,12.90
2015,08,29,10,07,24.20
2015,08,29,10,08,25.70
2015,08,29,10,09,22.50
2015,08,29,10,10,9.60
2015,08,29,10,11,22.50
2015,08,29,10,12,25.70
2015,08,29,10,13,17.70
2015,08,29,10,14,17.70
2015,08,29,10,15,16.10
2015,08,29,10,16,6.40
2015,08,29,10,17,16.10
2015,08,29,10,18,9.60
2015,08,29,10,19,9.60
2015,08,29,10,20,12.90
2015,08,29,10,21,24.20
2015,08,29,10,22,17.70
2015,08,29,10,23,16.10
2015,08,29,10,24,11.30
2015,08,29,10,25,12.90
2015,08,29,10,26,19.30
2015,08,29,10,27,9.60
2015,08,29,10,28,6.40
2015,08,29,10,29,8.10
2015,08,29,10,30,11.30
2015,08,29,10,31,14.50
2015,08,29,10,32,11.30
2015,08,29,10,33,22.50
2015,08,29,10,34,14.50
2015,08,29,10,35,9.60
2015,08,29,10,36,17.70
2015,08,29,10,37,12.90
2015,08,29,10,38,8.10
2015,08,29,10,39,17.70
2015,08,29,10,40,22.50
2015,08,29,10,41,16.10
2015,08,29,10,42,16.10
2015,08,29,10,43,20.90
2015,08,29,10,44,12.90
2015,08,29,10,45,17.70
2015,08,29,10,46,17.70
2015,08,29,10,47,17.70
2015,08,29,10,48,11.30
2015,08,29,10,49,14.50
2015,08,29,10,50,17.70
2015,08,29,10,51,24.20
2015,08,29,10,52,16.10
2015,08,29,10,53,9.60
2015,08,29,10,54,9.60
2015,08,29,10,55,16.10
2015,08,29,10,56,11.30
2015,08,29,10,57,19.30
2015,08,29,10,58,27.40
2015,08,29,10,59,24.20
2015,08,29,11,00,17.70
2015,08,29,11,01,17.70
2015,08,29,11,02,9.60
2015,08,29,11,03,14.50
2015,08,29,11,04,19.30
2015,08,29,11,05,16.10
2015,08,29,11,06,11.30
2015,08,29,11,07,20.90
2015,08,29,11,08,20.90
2015,08,29,11,09,27.40
2015,08,29,11,10,19.30
2015,08,29,11,11,22.50
2015,08,29,11,12,17.70
2015,08,29,11,13,14.50
2015,08,29,11,14,27.40
2015,08,29,11,15,17.70
2015,08,29,11,16,19.30
2015,08,29,11,17,19.30
2015,08,29,11,18,20.90
2015,08,29,11,19,17.70
2015,08,29,11,20,22.50
2015,08,29,11,21,20.90
2015,08,29,11,22,20.90
2015,08,29,11,23,24.20
2015,08,29,11,24,17.70
2015,08,29,11,25,24.20
2015,08,29,11,26,24.20
2015,08,29,11,27,24.20
2015,08,29,11,28,16.10
2015,08,29,11,29,16.10
2015,08,29,11,30,22.50
2015,08,29,11,31,24.20
2015,08,29,11,32,22.50
2015,08,29,11,33,17.70
2015,08,29,11,34,9.60
2015,08,29,11,35,19.30
2015,08,29,11,36,20.90
2015,08,29,11,37,20.90
2015,08,29,11,38,17.70
2015,08,29,11,39,17.70
2015,08,29,11,40,14.50
2015,08,29,11,41,20.90
2015,08,29,11,42,16.10
2015,08,29,11,43,19.30
2015,08,29,11,44,19.30
2015,08,29,11,45,27.40
2015,08,29,11,46,22.50
2015,08,29,11,47,22.50
2015,08,29,11,48,16.10
2015,08,29,11,49,19.30
2015,08,29,11,50,20.90
2015,08,29,11,51,16.10
2015,08,29,11,52,25.70
2015,08,29,11,53,22.50
2015,08,29,11,54,25.70
2015,08,29,11,55,20.90
2015,08,29,11,56,16.10
2015,08,29,11,57,40.20
2015,08,29,11,58,33.80
2015,08,29,11,59,25.70
2015,08,29,12,00,29.00
2015,08,29,12,01,25.70
2015,08,29,12,02,32.20
2015,08,29,12,03,35.40
2015,08,29,12,04,35.40
2015,08,29,12,05,33.80
2015,08,29,12,06,38.60
2015,08,29,12,07,30.60
2015,08,29,12,08,32.20
2015,08,29,12,09,35.40
2015,08,29,12,10,30.60
2015,08,29,12,11,33.80
2015,08,29,12,12,43.50
2015,08,29,12,13,37.00
2015,08,29,12,14,40.20
2015,08,29,12,15,45.10
2015,08,29,12,16,30.60
2015,08,29,12,17,33.80
2015,08,29,12,18,46.70
2015,08,29,12,19,38.60
2015,08,29,12,20,46.70
2015,08,29,12,21,29.00
2015,08,29,12,22,27.40
2015,08,29,12,23,33.80
2015,08,29,12,24,41.80
2015,08,29,12,25,27.40
2015,08,29,12,26,38.60
2015,08,29,12,27,30.60
2015,08,29,12,28,29.00
2015,08,29,12,29,30.60
2015,08,29,12,30,46.70
2015,08,29,12,31,53.10
2015,08,29,12,32,43.50
2015,08,29,12,33,37.00
2015,08,29,12,34,35.40
2015,08,29,12,35,33.80
2015,08,29,12,36,33.80
2015,08,29,12,37,41.80
2015,08,29,12,38,37.00
2015,08,29,12,39,40.20
2015,08,29,12,40,35.40
2015,08,29,12,41,41.80
2015,08,29,12,42,27.40
2015,08,29,12,43,48.30
2015,08,29,12,44,38.60
2015,08,29,12,45,32.20
2015,08,29,12,46,35.40
2015,08,29,12,47,37.00
2015,08,29,12,48,27.40
2015,08,29,12,49,33.80
2015,08,29,12,50,17.70
2015,08,29,12,51,17.70
2015,08,29,12,52,17.70
2015,08,29,12,53,17.70
2015,08,29,12,54,17.70
2015,08,29,12,55,17.70
2015,08,29,12,56,17.70
2015,08,29,12,57,17.70
2015,08,29,12,58,17.70
2015,08,29,13,31,24.20
2015,08,29,13,32,20.90
2015,08,29,13,33,30.60
2015,08,29,13,34,27.40
2015,08,29,13,35,16.10
2015,08,29,13,36,19.30
2015,08,29,13,37,17.70
2015,08,29,13,38,20.90
2015,08,29,13,39,22.50
2015,08,29,13,40,17.70
2015,08,29,13,41,32.20
2015,08,29,13,42,29.00
2015,08,29,13,43,35.40
2015,08,29,13,44,32.20
2015,08,29,13,45,27.40
2015,08,29,13,46,24.20
2015,08,29,13,47,25.70
2015,08,29,13,48,33.80
2015,08,29,13,49,30.60
2015,08,29,13,50,30.60
2015,08,29,13,51,29.00
2015,08,29,13,52,24.20
2015,08,29,13,53,22.50
2015,08,29,13,54,29.00
2015,08,29,13,55,22.50
2015,08,29,13,56,24.20
2015,08,29,13,57,22.50
2015,08,29,13,58,24.20
2015,08,29,13,59,22.50
2015,08,29,14,00,22.50
2015,08,29,14,01,27.40
2015,08,29,14,02,33.80
2015,08,29,14,03,25.70
2015,08,29,14,04,22.50
2015,08,29,14,05,22.50
2015,08,29,14,06,16.10
2015,08,29,14,07,11.30
2015,08,29,14,08,6.40
2015,08,29,14,09,4.80
2015,08,29,14,10,3.20
2015,08,29,14,11,9.60
2015,08,29,14,12,4.80
2015,08,29,14,13,6.40
2015,08,29,14,14,6.40
2015,08,29,14,15,8.10
2015,08,29,14,16,9.60
2015,08,29,14,17,9.60
2015,08,29,14,18,9.60
2015,08,29,14,19,4.80
2015,08,29,14,20,1.60
2015,08,29,14,21,11.30
2015,08,29,14,22,9.60
2015,08,29,14,23,9.60
2015,08,29,14,24,11.30
2015,08,29,14,25,9.60
2015,08,29,14,26,9.60
2015,08,29,14,27,16.10
2015,08,29,14,28,19.30
2015,08,29,14,29,41.80
2015,08,29,14,30,32.20
2015,08,29,14,31,30.60
2015,08,29,14,32,35.40
2015,08,29,14,33,64.40
2015,08,29,14,34,41.80
2015,08,29,14,35,27.40
2015,08,29,14,36,22.50
2015,08,29,14,37,27.40
2015,08,29,14,38,24.20
2015,08,29,14,39,20.90
2015,08,29,14,40,32.20
2015,08,29,14,41,29.00
2015,08,29,14,42,43.50
2015,08,29,14,43,32.20
2015,08,29,14,44,40.20
2015,08,29,14,45,35.40
2015,08,29,14,46,35.40
2015,08,29,14,47,19.30
2015,08,29,14,48,25.70
2015,08,29,14,49,20.90
2015,08,29,14,50,9.60
2015,08,29,14,51,1.60
2015,08,29,14,52,8.10
2015,08,29,14,53,8.10
2015,08,29,14,54,27.40
2015,08,29,14,55,25.70
2015,08,29,14,56,17.70
2015,08,29,14,57,6.40
2015,08,29,14,58,16.10
2015,08,29,14,59,8.10
2015,08,29,15,00,8.10
2015,08,29,15,01,6.40
2015,08,29,15,02,12.90
2015,08,29,15,03,43.50
2015,08,29,15,04,27.40
2015,08,29,15,05,3.20
2015,08,29,15,06,14.50
2015,08,29,15,07,16.10
2015,08,29,15,08,14.50
2015,08,29,15,09,11.30
2015,08,29,15,10,24.20
2015,08,29,15,11,25.70
2015,08,29,15,12,14.50
2015,08,29,15,13,9.60
2015,08,29,15,14,11.30
2015,08,29,15,15,11.30
2015,08,29,15,16,11.30
2015,08,29,15,17,14.50
2015,08,29,15,18,22.50
2015,08,29,15,19,29.00
2015,08,29,15,20,19.30
2015,08,29,15,21,9.60
2015,08,29,15,22,20.90
2015,08,29,15,23,29.00
2015,08,29,15,24,25.70
2015,08,29,15,25,17.70
2015,08,29,15,26,16.10
2015,08,29,15,27,17.70
2015,08,29,15,28,9.60
2015,08,29,15,29,35.40
2015,08,29,15,30,20.90
2015,08,29,15,31,14.50
2015,08,29,15,32,6.40
2015,08,29,15,33,8.10
2015,08,29,15,34,8.10
2015,08,29,15,35,19.30
2015,08,29,15,36,11.30
2015,08,29,15,37,27.40
2015,08,29,15,38,20.90
2015,08,29,15,39,20.90
2015,08,29,15,40,19.30
2015,08,29,15,41,25.70
2015,08,29,15,42,27.40
2015,08,29,15,43,22.50
2015,08,29,15,44,17.70
2015,08,29,15,45,12.90
2015,08,29,15,46,16.10
2015,08,29,15,47,6.40
2015,08,29,15,48,6.40
2015,08,29,15,49,4.80
2015,08,29,15,50,1.60
2015,08,29,15,51,6.40
2015,08,29,15,52,9.60
2015,08,29,15,53,4.80
2015,08,29,15,54,1.60
2015,08,29,15,55,6.40
2015,08,29,15,56,9.60
2015,08,29,15,57,11.30
2015,08,29,15,58,14.50
2015,08,29,15,59,14.50
2015,08,29,16,00,8.10
2015,08,29,16,01,3.20
2015,08,29,16,06,1.60
2015,08,29,16,07,8.10
2015,08,29,16,08,6.40
2015,08,29,16,19,3.20
2015,08,29,16,23,1.60
2015,08,29,16,25,6.40
2015,08,29,16,26,3.20
2015,08,29,16,27,4.80
2015,08,29,16,28,4.80
2015,08,29,16,29,8.10
2015,08,29,16,30,8.10
2015,08,29,16,31,11.30
2015,08,29,16,32,11.30
2015,08,29,16,33,11.30
2015,08,29,16,34,16.10
2015,08,29,16,35,19.30
2015,08,29,16,36,16.10
2015,08,29,16,37,19.30
2015,08,29,16,38,17.70
2015,08,29,16,39,14.50
2015,08,29,16,40,16.10
2015,08,29,16,41,16.10
2015,08,29,16,42,17.70
2015,08,29,16,43,11.30
2015,08,29,16,44,16.10
2015,08,29,16,45,16.10
2015,08,29,16,46,20.90
2015,08,29,16,47,20.90
2015,08,29,16,48,14.50
2015,08,29,16,49,16.10
2015,08,29,16,50,11.30
2015,08,29,16,51,16.10
2015,08,29,16,52,11.30
2015,08,29,16,53,20.90
2015,08,29,16,54,16.10
2015,08,29,16,55,16.10
2015,08,29,16,56,16.10
2015,08,29,16,57,14.50
2015,08,29,16,58,25.70
2015,08,29,16,59,17.70
2015,08,29,17,00,20.90
2015,08,29,17,01,20.90
2015,08,29,17,02,19.30
2015,08,29,17,03,19.30
2015,08,29,17,04,19.30
2015,08,29,17,05,20.90
2015,08,29,17,06,22.50
2015,08,29,17,07,20.90
2015,08,29,17,08,19.30
2015,08,29,17,09,19.30
2015,08,29,17,10,17.70
2015,08,29,17,11,19.30
2015,08,29,17,12,20.90
2015,08,29,17,13,19.30
2015,08,29,17,14,20.90
2015,08,29,17,15,20.90
2015,08,29,17,16,24.20
2015,08,29,17,17,20.90
2015,08,29,17,18,20.90
2015,08,29,17,19,17.70
2015,08,29,17,20,11.30
2015,08,29,17,21,22.50
2015,08,29,17,22,24.20
2015,08,29,17,23,22.50
2015,08,29,17,24,14.50
2015,08,29,17,25,9.60
2015,08,29,17,26,9.60
2015,08,29,17,27,6.40
2015,08,29,17,28,3.20
2015,08,29,17,29,9.60
2015,08,29,17,30,11.30
2015,08,29,17,31,9.60
2015,08,29,17,32,12.90
2015,08,29,17,33,11.30
2015,08,29,17,34,19.30
2015,08,29,17,35,20.90
2015,08,29,17,36,20.90
2015,08,29,17,37,17.70
2015,08,29,17,38,20.90
2015,08,29,17,39,17.70
2015,08,29,17,40,19.30
2015,08,29,17,41,22.50
2015,08,29,17,42,19.30
2015,08,29,17,43,19.30
2015,08,29,17,44,25.70
2015,08,29,17,45,24.20
2015,08,29,17,46,27.40
2015,08,29,17,47,25.70
2015,08,29,17,48,24.20
2015,08,29,17,49,20.90
2015,08,29,17,50,17.70
2015,08,29,17,51,22.50
2015,08,29,17,52,20.90
2015,08,29,17,53,22.50
2015,08,29,17,54,19.30
2015,08,29,17,55,22.50
2015,08,29,17,56,19.30
2015,08,29,17,57,16.10
2015,08,29,17,58,24.20
2015,08,29,17,59,25.70
2015,08,29,18,00,19.30
2015,08,29,18,01,19.30
2015,08,29,18,02,16.10
2015,08,29,18,03,17.70
2015,08,29,18,04,20.90
2015,08,29,18,05,16.10
2015,08,29,18,06,14.50
2015,08,29,18,07,19.30
2015,08,29,18,08,24.20
2015,08,29,18,09,27.40
2015,08,29,18,10,25.70
2015,08,29,18,11,24.20
2015,08,29,18,12,25.70
2015,08,29,18,13,16.10
2015,08,29,18,14,19.30
2015,08,29,18,15,16.10
2015,08,29,18,16,17.70
2015,08,29,18,17,17.70
2015,08,29,18,18,17.70
2015,08,29,18,19,17.70
2015,08,29,18,20,20.90
2015,08,29,18,21,20.90
2015,08,29,18,22,20.90
2015,08,29,18,23,17.70
2015,08,29,18,24,20.90
2015,08,29,18,25,17.70
2015,08,29,18,26,6.40
2015,08,29,18,27,9.60
2015,08,29,18,28,19.30
2015,08,29,18,29,12.90
2015,08,29,18,30,12.90
2015,08,29,18,31,8.10
2015,08,29,18,32,17.70